Location: Bruderhein
(53.8035°N, 112.9265°W)
Time: 10:31:21
(UTC+00:00)

deb Agena D - Pass Details

Date: 17 December 2023
Orbit: 760 x 888 km, 99.8° (Epoch: 04 March)

Event Time Altitude Azimuth Distance (km) Brightness Sun altitude
Rises 13:09:18 0° 136° (SE) 3,443 ? -21.3°
Reaches altitude 10° 13:11:48 10° 130° (SE) 2,493 ? -21.0°
Maximum altitude 13:16:58 43° 61° (ENE) 1,178 ? -20.2°
Drops below altitude 10° 13:22:00 10° 352° (N) 2,428 ? -19.5°
Enters shadow 13:23:08 - 349° (NNW) 2,854 ? -19.3°
